Skip Page Navigation
NASA JPL Caltech
NASA Logo - Jet Propulsion Laboratory + View the NASA Portal
+ Center for Near-Earth Object Studies
JPL Home Earth Solar System Stars & Galaxies Technology
JPL Solar System Dynamics
BODIES ORBITS EPHEMERIDES TOOLS PHYSICAL DATA DISCOVERY FAQ SITE MAP
IMPORTANT: The SSD Announcement email list is now available. Major changes are coming in the near future, including possible hostname and/or URL changes. To be notified of such changes, subscribe to this email list.

Please visit this page for more details.


JPL Small-Body Database Browser
Search: [ help ]  
351730 (2006 CV45)
Classification: Main-belt Asteroid          SPK-ID: 2351730
Ephemeris | Orbit Diagram | Orbital Elements | Mission Design | Physical Parameters | Discovery Circumstances | Close-Approach Data ]

[ show orbit diagram ]
Orbital Elements at Epoch 2458600.5 (2019-Apr-27.0) TDB
Reference: JPL 5 (heliocentric ecliptic J2000)
 Element Value Uncertainty (1-sigma)   Units 
e .05150238391496603 1.1321e-07  
a 2.326236954462535 3.2438e-08 au
q 2.206430205756625 2.867e-07 au
i 5.497603935901358 1.2167e-05 deg
node 329.6070493399424 5.7652e-05 deg
peri 319.920211718721 0.00015025 deg
M 106.7017932194402 0.0001335 deg
tp 2458216.396229628974
(2018-Apr-07.89622963)
0.00048576 TDB
period 1295.923462590658
3.55
2.7106e-05
7.421e-08
d
yr
n .2777941833696956 5.8104e-09 deg/d
Q 2.446043703168446 3.4108e-08 au
  Orbit Determination Parameters
   # obs. used (total)      95  
   data-arc span      4623 days (12.66 yr)  
   first obs. used      2006-02-03  
   last obs. used      2018-10-01  
   planetary ephem.      DE431  
   SB-pert. ephem.      SB431-N16  
   condition code      0  
   norm. resid. RMS      .6159  
   source      ORB  
   producer      Otto Matic  
   solution date      2019-Jul-14 12:23:13  

Additional Information
 Earth MOID = 1.1929 au 
 Jupiter MOID = 2.64408 au 
 T_jup = 3.566 
[ show covariance matrix ]

Ephemeris | Orbit Diagram | Orbital Elements | Mission Design | Physical Parameters | Discovery Circumstances | Close-Approach Data ]

Physical Parameter Table
Parameter Symbol Value Units Sigma Reference Notes
absolute magnitude H 17.8   n/a MPO455546  

351730 (2006 CV45)          Discovered 2006-Feb-03 by Spacewatch at Kitt Peak
Reference: 20130127/Numbers.arcLast Updated: 2013-01-31

[ show close-approach data ]
Ephemeris | Orbit Diagram | Orbital Elements | Mission Design | Physical Parameters | Discovery Circumstances | Close-Approach Data ]
ABOUT SSD CREDITS/AWARDS PRIVACY/COPYRIGHT GLOSSARY LINKS
FirstGov
(server date/time)  
NASA Home Page
Site Manager:   Ryan S. Park
Webmaster  Alan B. Chamberlin